When you browse on this site, cookies collect data to enhance your experience and personalize the content and advertising you see.
Visit our Privacy Policy to learn more. By continuing to use the site, you agree to this use of cookies and data.

Hourly Weather Utena

Today, 11 July, Saturday

Time Temperature Precipitation Wind Pressure Humidity
00:00 +18°C° 0.3 mm 3 mps 746 mmHg 96%
01:00 +18°C° 0.3 mm 4 mps 746 mmHg 96%
02:00 +18°C° 0.3 mm 4 mps 746 mmHg 96%
03:00 +17°C° 0.1 mm 5 mps 746 mmHg 95%
04:00 +19°C° 0.1 mm 6 mps 746 mmHg 95%
05:00 +19°C° 0.1 mm 6 mps 746 mmHg 95%
06:00 +17°C° 0.1 mm 6 mps 747 mmHg 91%
07:00 +16°C° 0.1 mm 7 mps 748 mmHg 87%
08:00 +15°C° 0.1 mm 7 mps 749 mmHg 83%
09:00 +16°C° 0 mm 6 mps 750 mmHg 77%
10:00 +17°C° 0 mm 6 mps 750 mmHg 70%
11:00 +19°C° 0 mm 6 mps 751 mmHg 63%
12:00 +19°C° 0 mm 6 mps 752 mmHg 63%
13:00 +19°C° 0 mm 6 mps 752 mmHg 63%
14:00 +19°C° 0 mm 6 mps 752 mmHg 63%
15:00 +19°C° 0 mm 6 mps 752 mmHg 63%
16:00 +19°C° 0 mm 5 mps 753 mmHg 64%
17:00 +19°C° 0 mm 5 mps 753 mmHg 64%
18:00 +18°C° 0 mm 4 mps 753 mmHg 69%
19:00 +17°C° 0 mm 3 mps 753 mmHg 74%
20:00 +16°C° 0 mm 2 mps 753 mmHg 79%
21:00 +15°C° 0 mm 2 mps 753 mmHg 82%
22:00 +14°C° 0 mm 2 mps 754 mmHg 85%
23:00 +13°C° 0 mm 2 mps 754 mmHg 88%

Tomorrow, 12 July, Sunday

Time Temperature Precipitation Wind Pressure Humidity
00:00 +13°C° 0 mm 2 mps 754 mmHg 89%
01:00 +12°C° 0 mm 2 mps 754 mmHg 91%
02:00 +12°C° 0 mm 2 mps 754 mmHg 93%
03:00 +12°C° 0 mm 2 mps 754 mmHg 93%
04:00 +12°C° 0 mm 2 mps 754 mmHg 93%
05:00 +10°C° 0 mm 2 mps 754 mmHg 94%
06:00 +13°C° 0 mm 2 mps 754 mmHg 89%
07:00 +14°C° 0 mm 2 mps 754 mmHg 84%
08:00 +15°C° 0 mm 2 mps 754 mmHg 79%
09:00 +16°C° 0 mm 2 mps 754 mmHg 74%
10:00 +17°C° 0 mm 2 mps 754 mmHg 69%
11:00 +18°C° 0 mm 2 mps 754 mmHg 64%
12:00 +18°C° 0 mm 2 mps 754 mmHg 61%
13:00 +19°C° 0 mm 2 mps 754 mmHg 59%
14:00 +19°C° 0 mm 2 mps 754 mmHg 57%
15:00 +19°C° 0.2 mm 3 mps 753 mmHg 63%
16:00 +18°C° 0.2 mm 3 mps 753 mmHg 70%
17:00 +17°C° 0.2 mm 3 mps 753 mmHg 76%
18:00 +17°C° 0.1 mm 3 mps 753 mmHg 79%
19:00 +16°C° 0.1 mm 2 mps 753 mmHg 83%
20:00 +15°C° 0.1 mm 2 mps 753 mmHg 87%
21:00 +13°C° 0 mm 2 mps 753 mmHg 89%
22:00 +12°C° 0 mm 2 mps 753 mmHg 91%
23:00 +10°C° 0 mm 2 mps 753 mmHg 94%

Day after tomorrow, 13 July, Monday

Time Temperature Precipitation Wind Pressure Humidity
00:00 +10°C° 0 mm 2 mps 753 mmHg 95%
01:00 +9°C° 0 mm 2 mps 753 mmHg 96%
02:00 +8°C° 0 mm 2 mps 753 mmHg 96%
03:00 +8°C° 0 mm 2 mps 753 mmHg 97%
04:00 +8°C° 0 mm 2 mps 753 mmHg 97%
05:00 +8°C° 0 mm 2 mps 753 mmHg 97%
06:00 +10°C° 0 mm 2 mps 753 mmHg 92%
07:00 +13°C° 0 mm 2 mps 753 mmHg 87%
08:00 +15°C° 0 mm 2 mps 753 mmHg 81%
09:00 +16°C° 0 mm 2 mps 752 mmHg 74%
10:00 +18°C° 0 mm 3 mps 752 mmHg 67%
11:00 +19°C° 0 mm 3 mps 752 mmHg 59%
12:00 +20°C° 0.1 mm 3 mps 752 mmHg 59%
13:00 +20°C° 0.1 mm 3 mps 752 mmHg 58%
14:00 +21°C° 0.1 mm 3 mps 752 mmHg 57%
15:00 +20°C° 0.4 mm 3 mps 751 mmHg 61%
16:00 +20°C° 0.4 mm 3 mps 751 mmHg 66%
17:00 +19°C° 0.4 mm 3 mps 751 mmHg 70%
18:00 +18°C° 0.2 mm 3 mps 751 mmHg 76%
19:00 +17°C° 0.2 mm 2 mps 751 mmHg 82%
20:00 +16°C° 0.2 mm 2 mps 751 mmHg 87%
21:00 +15°C° 0 mm 2 mps 751 mmHg 90%
22:00 +14°C° 0 mm 2 mps 751 mmHg 92%
23:00 +12°C° 0 mm 2 mps 752 mmHg 94%

14 July, Tuesday

Time Temperature Precipitation Wind Pressure Humidity
00:00 +12°C° 0 mm 2 mps 752 mmHg 94%
01:00 +10°C° 0 mm 2 mps 752 mmHg 94%
02:00 +9°C° 0 mm 2 mps 752 mmHg 94%
03:00 +9°C° 0 mm 2 mps 752 mmHg 94%
04:00 +10°C° 0 mm 1 mps 752 mmHg 93%
05:00 +10°C° 0 mm 1 mps 752 mmHg 93%
06:00 +12°C° 0 mm 1 mps 752 mmHg 87%
07:00 +14°C° 0 mm 1 mps 753 mmHg 81%
08:00 +16°C° 0 mm 1 mps 753 mmHg 75%
09:00 +18°C° 0 mm 1 mps 753 mmHg 67%
10:00 +19°C° 0 mm 1 mps 753 mmHg 59%
11:00 +21°C° 0 mm 1 mps 753 mmHg 52%
12:00 +20°C° 0 mm 2 mps 752 mmHg 51%
13:00 +21°C° 0 mm 2 mps 752 mmHg 50%
14:00 +21°C° 0 mm 2 mps 752 mmHg 49%
15:00 +21°C° 0.1 mm 2 mps 752 mmHg 52%
16:00 +21°C° 0.1 mm 2 mps 752 mmHg 55%
17:00 +21°C° 0.1 mm 2 mps 751 mmHg 58%
18:00 +20°C° 0.1 mm 1 mps 751 mmHg 65%
19:00 +19°C° 0.1 mm 1 mps 751 mmHg 73%
20:00 +18°C° 0.1 mm 1 mps 751 mmHg 80%
21:00 +15°C° 0 mm 0 mps 751 mmHg 83%
22:00 +14°C° 0 mm 0 mps 751 mmHg 86%
23:00 +12°C° 0 mm 0 mps 751 mmHg 88%

15 July, Wednesday

Time Temperature Precipitation Wind Pressure Humidity
00:00 +13°C° 0 mm 1 mps 751 mmHg 90%
01:00 +13°C° 0 mm 1 mps 751 mmHg 91%
02:00 +12°C° 0 mm 1 mps 751 mmHg 92%
03:00 +12°C° 0 mm 1 mps 751 mmHg 92%
04:00 +12°C° 0 mm 1 mps 751 mmHg 92%
05:00 +12°C° 0 mm 1 mps 751 mmHg 93%
06:00 +14°C° 0 mm 1 mps 751 mmHg 87%
07:00 +16°C° 0 mm 1 mps 751 mmHg 81%
08:00 +19°C° 0 mm 1 mps 751 mmHg 75%
09:00 +19°C° 0 mm 2 mps 751 mmHg 70%
10:00 +21°C° 0 mm 2 mps 751 mmHg 64%
11:00 +23°C° 0 mm 2 mps 750 mmHg 58%
12:00 +23°C° 0.3 mm 2 mps 750 mmHg 59%
13:00 +23°C° 0.3 mm 2 mps 750 mmHg 61%
14:00 +24°C° 0.3 mm 2 mps 750 mmHg 62%
15:00 +23°C° 0.4 mm 2 mps 749 mmHg 64%
16:00 +23°C° 0.4 mm 2 mps 749 mmHg 66%
17:00 +23°C° 0.4 mm 2 mps 748 mmHg 67%
18:00 +21°C° 0.2 mm 2 mps 748 mmHg 72%
19:00 +20°C° 0.2 mm 2 mps 748 mmHg 78%
20:00 +18°C° 0.2 mm 2 mps 748 mmHg 83%
21:00 +17°C° 0 mm 2 mps 747 mmHg 85%
22:00 +17°C° 0 mm 3 mps 747 mmHg 88%
23:00 +16°C° 0 mm 3 mps 747 mmHg 91%

16 July, Thursday

Time Temperature Precipitation Wind Pressure Humidity
00:00 +14°C° 0 mm 3 mps 747 mmHg 92%
01:00 +14°C° 0 mm 3 mps 746 mmHg 92%
02:00 +14°C° 0 mm 3 mps 746 mmHg 93%
03:00 +14°C° 0.1 mm 3 mps 746 mmHg 93%
04:00 +14°C° 0.1 mm 3 mps 745 mmHg 93%
05:00 +14°C° 0.1 mm 3 mps 745 mmHg 93%
06:00 +16°C° 0.3 mm 3 mps 745 mmHg 94%
07:00 +16°C° 0.3 mm 3 mps 745 mmHg 94%
08:00 +16°C° 0.3 mm 3 mps 744 mmHg 95%
09:00 +16°C° 1.3 mm 3 mps 744 mmHg 95%
10:00 +16°C° 1.3 mm 3 mps 744 mmHg 95%
11:00 +16°C° 1.3 mm 3 mps 744 mmHg 96%
12:00 +17°C° 0.5 mm 3 mps 744 mmHg 91%
13:00 +18°C° 0.5 mm 3 mps 744 mmHg 87%
14:00 +19°C° 0.5 mm 3 mps 744 mmHg 82%
15:00 +18°C° 0.8 mm 4 mps 743 mmHg 84%
16:00 +18°C° 0.8 mm 4 mps 743 mmHg 85%
17:00 +17°C° 0.8 mm 5 mps 743 mmHg 87%
18:00 +17°C° 0.3 mm 4 mps 743 mmHg 89%
19:00 +15°C° 0.3 mm 4 mps 743 mmHg 91%
20:00 +14°C° 0.3 mm 4 mps 743 mmHg 93%
21:00 +13°C° 0 mm 4 mps 743 mmHg 94%
22:00 +12°C° 0 mm 4 mps 743 mmHg 95%
23:00 +12°C° 0 mm 4 mps 743 mmHg 96%
Show more